This demonstration page uses our WeatherBlox Daily Observations layout. Learn more.

Left ArrowRight Arrow

31.31129, -92.44514

Hourly Observations for July 22, 2022

Temp ( °F °C ) Dew Point ( °F °C ) Humidity (%) Winds ( mph kmh ) Pressure ( in mb ) Visibility ( mi km ) Precip ( " mm )
12:53 am 00:53 Clear 81 27.2 76 24.4 85 85 SW 3 6 29.94 1014 9 14 0.00 0.00
1:53 am 01:53 Clear 81 27.2 76 24.4 85 85 S 5 7 29.96 1015 9 14 0.00 0.00
2:53 am 02:53 Clear 81 27.2 76 24.4 85 85 Calm 29.96 1015 8 13 0.00 0.00
3:53 am 03:53 Clear 83 28.3 76 24.4 79 79 SW 6 9 29.96 1015 8 13 0.00 0.00
4:53 am 04:53 Cloudy 82 27.8 76 24.4 82 82 WSW 3 6 29.98 1015 8 13 0.00 0.00
5:04 am 05:04 Cloudy 82 27.8 76 24.4 82 82 Calm 29.97 1015 8 13 0.00 0.00
5:53 am 05:53 Cloudy 82 27.8 76 24.4 82 82 W 5 7 29.98 1015 8 13 0.00 0.00
6:53 am 06:53 Mostly Cloudy with Haze 82 27.8 76 24.4 82 82 Calm 30.00 1016 6 10 0.00 0.00
7:53 am 07:53 Sunny 83 28.3 77 25 82 82 WSW 5 7 30.01 1016 7 11 0.00 0.00
8:53 am 08:53 Mostly Cloudy 84 28.9 77 25 80 80 WSW 5 7 30.04 1017 7 11 0.00 0.00
9:53 am 09:53 Mostly Sunny 86 30 77 25 75 75 SW 5 7 30.04 1017 8 13 0.00 0.00
10:13 am 10:13 Mostly Cloudy with Nearby Thunderstorms 81 27.2 71 21.7 72 72 SSE 21 33 30.06 1018 8 13 0.00 0.00
10:23 am 10:23 Cloudy with Nearby Thunderstorms 78 25.6 69 20.6 74 74 SSE 24 39 30.06 1018 10 16 0.00 0.00
10:35 am 10:35 Cloudy 78 25.6 69 20.6 74 74 S 20 31 30.05 1017 10 16 0.00 0.00
10:40 am 10:40 Cloudy with Nearby Thunderstorms 76 24.4 70 21.1 82 82 S 15 24 30.06 1018 5 8 0.02 0.51
10:53 am 10:53 Cloudy with Nearby Thunderstorms 76 24.4 71 21.7 85 85 S 6 9 30.09 1019 10 16 0.03 0.76
11:02 am 11:02 Cloudy with Thunderstorms 75 23.9 71 21.7 88 88 S 7 11 30.09 1019 2 3 0.09 2.29
11:06 am 11:06 Cloudy with Strong Thunderstorms 75 23.9 71 21.7 88 88 S 6 9 30.09 1019 1 1 0.19 4.83
11:18 am 11:18 Cloudy with Thunderstorms 75 23.9 70 21.1 84 84 S 8 13 30.09 1019 2 3 0.25 6.35
11:26 am 11:26 Cloudy with Thunderstorms 75 23.9 71 21.7 88 88 W 7 11 30.09 1019 4 6 0.27 6.86
11:43 am 11:43 Cloudy with Strong Thunderstorms 74 23.3 70 21.1 88 88 WSW 3 6 30.10 1019 2 3 0.31 7.87
11:49 am 11:49 Cloudy with Nearby Thunderstorms 73 23 72 22 94 94 SW 6 9 30.10 1019 3 5 0.32 8.13
11:50 am 11:50 Cloudy with Nearby Thunderstorms 74 23.3 71 21.7 91 91 SW 6 9 30.10 1019 3 5 0.32 8.13
12:13 pm 12:13 Partly Cloudy 74 23.3 71 21.7 91 91 W 5 7 30.09 1019 10 16 0.00 0.00
12:53 pm 12:53 Mostly Sunny 74 23.3 71 21.7 91 91 WSW 7 11 30.07 1018 10 16 0.00 0.00
1:53 pm 13:53 Sunny 78 25.6 71 21.7 79 79 W 6 9 30.06 1018 10 16 0.00 0.00
2:53 pm 14:53 Sunny 81 27.2 71 21.7 72 72 NNW 6 9 30.05 1018 10 16 0.00 0.00
3:53 pm 15:53 Sunny 85 29.4 71 21.7 63 63 W 6 9 30.03 1017 10 16 0.00 0.00
4:53 pm 16:53 Sunny 88 31.1 69 20.6 54 54 Calm 30.01 1016 10 16 0.00 0.00
5:53 pm 17:53 Sunny 90 32.2 67 19.4 47 47 Calm 30.01 1016 10 16 0.00 0.00
6:53 pm 18:53 Mostly Cloudy 89 31.7 67 19.4 48 48 ESE 5 7 30.01 1016 10 16 0.00 0.00
7:53 pm 19:53 Sunny 85 29.4 72 22.2 65 65 SSW 5 7 30.01 1016 10 16 0.00 0.00
8:53 pm 20:53 Clear 80 26.7 71 21.7 74 74 SSW 3 6 30.01 1016 10 16 0.00 0.00
9:53 pm 21:53 Clear 79 26.1 71 21.7 77 77 Calm 30.02 1017 10 16 0.00 0.00
10:53 pm 22:53 Clear 77 25 72 22.2 85 85 S 3 6 30.04 1017 10 16 0.00 0.00
11:53 pm 23:53 Clear 76 24.4 72 22.2 88 88 Calm 30.03 1017 10 16 0.00 0.00

Powered by AerisWeather